National Weather Service United States Department of Commerce

Observations from across/near northern Michigan

Marine Observations

Michigan Hourly Observations

 

Yesterday's high, low and precipitation reports from across northern Michigan

Northern Michigan Temperatures and Precipitation

 

Observation Text Products


000
SXUS83 KAPX 171126
OMRAPX

Marine Observations
National Weather Service Gaylord MI
626 AM EST Thu Jan 17 2019

WIND DATA (KTS) WAVES
SITE DATE/TIME DIR SPEED GUST (FT) SITE NAME
--------------------------------------------------

Lake Superior/St Marys River

GRMM4 171040Z 200 6 9 Grand Marais
WFPM4 171040Z 260 7 12 Whitefish Point
PTIM4 171100Z 220 3 7 Point Iroquois
CYAM 171100Z 210 5 SOO (Canada)
KANJ 171055Z 210 6 Sault Ste Marie
SWPM4 171100Z 240 5 7 S.W. Pier
LTRM4 171100Z 350 2 Little Rapids
RCKM4 171100Z 40 1 2 Rock Cut
WNEM4 171100Z 200 2 5 West Nebish Island

Lake Huron

DTLM4 171100Z 290 3 4 DeTour Village
KDRM 171116Z CALM Drummond Island
KMCD 171116Z 170 7 Mackinac Island
MACM4 171100Z 180 10 13 Mackinac City
KSLH 171115Z 150 4 Cheboygan Airport
KPZQ 171116Z 150 3 Rogers City
PRIM4 171055Z CALM Presque Isle Light
KAPN 171054Z CALM Alpena Guard Base
45162 171240Z 200 4 1.0 Thunder Bay Buoy
SPTM4 171055Z CALM Sturgeon Point Light
KOSC 171116Z CALM Oscoda
TAWM4 171040Z 10 2 3 Tawas Point
GSLM4 171105Z 150 7 8 Gravelly Shoals
KP58 171051Z 230 4 Port Hope

Lake Michigan

KISQ 171115Z CALM Manistique
PNLM4 171100Z 10 6 7 Port Inland
NABM4 171040Z 20 1 3 Naubinway
KSJX 171115Z CALM St James
KPLN 171054Z CALM Pellston
KMGN 171115Z 80 4 Harbor Springs
KCVX 171115Z 150 4 Charlevoix
GTLM4 171040Z 200 5 9 Grand Traverse Light
KFKS 171116Z 130 4 Frankfort
BSBM4 171040Z 110 8 13 Big Sable Point
LDTM4 171100Z 90 5 8 Ludington
KLDM 171115Z 90 3 Ludington Airport


000
ASUS43 KDTX 171110
RWRMI
MICHIGAN HOURLY REGIONAL WEATHER ROUNDUP
NATIONAL WEATHER SERVICE DETROIT/PONTIAC MI
ISSUED BY NATIONAL WEATHER SERVICE GRAND RAPIDS MI
600 AM EST THU JAN 17 2019

NOTE: "FAIR" INDICATES FEW OR NO CLOUDS BELOW 12,000 FEET WITH NO
SIGNIFICANT WEATHER AND/OR OBSTRUCTION TO VISIBILITY.

MIZ047>049-052>055-059>063-066>070-074>076-081>083-171200-
SOUTHEAST LOWER MICHIGAN

CITY SKY/WX TMP DP RH WIND PRES REMARKS
ADRIAN CLOUDY 21 16 81 E7 30.24F WCI 12
ALMA MOCLDY 15 12 86 E5 30.24F WCI 8
ANN ARBOR CLOUDY 22 15 75 NE6 30.24F WCI 14
BAD AXE FAIR 9 6 91 CALM 30.27F
DETROIT CITY MOCLDY 24 16 71 E6 30.28F WCI 17
DETROIT CLOUDY 23 13 65 E6 30.27F WCI 16
FLINT MOCLDY 19 13 77 E5 30.25F WCI 12
GROSSE ILE CLOUDY 23 17 77 E6 30.26F WCI 16
HILLSDALE CLOUDY 24 18 78 E8 30.18F WCI 15
HOWELL CLOUDY 21 15 78 SE7 30.22F WCI 13

CITY SKY/WX TMP DP RH WIND PRES REMARKS
JACKSON CLOUDY 22 16 78 E10 30.21F WCI 11
LANSING FAIR 20 14 77 E6 30.22F WCI 12
MASON MOCLDY 21 16 81 E3 30.22F
MONROE CLOUDY 28 24 88 SE6 30.25F WCI 21
MT. CLEMENS CLOUDY 22 17 81 E8 30.26F WCI 13
PONTIAC CLOUDY 20 12 71 E7 30.23F WCI 11
PORT HOPE N/A 13 7 77 SW5 30.28F WCI 5
PORT HURON CLOUDY 16 14 93 CALM 30.29F
TRI CITIES FAIR 14 10 84 E6 30.27F WCI 5
YPSILANTI CLOUDY 25 15 66 E6 30.26F WCI 18
$$
MIZ043>046-050>051-056>058-064>065-071>073-077>080-171200-
SOUTHWEST LOWER MICHIGAN

CITY SKY/WX TMP DP RH WIND PRES REMARKS
BATTLE CREEK CLOUDY 23 18 81 E5 30.19F WCI 17
BENTON HARBOR CLOUDY 26 19 74 E8 30.17F WCI 18
BIG RAPIDS FAIR 13 9 85 CALM 30.19F
COLDWATER CLOUDY 26 21 82 SE8 30.19F WCI 17
HOLLAND CLOUDY 23 15 71 E8 30.19F WCI 14
GRAND RAPIDS CLOUDY 21 14 74 E12 30.20F WCI 9
KALAMAZOO CLOUDY 24 18 77 SE6 30.19F WCI 17
MARSHALL CLOUDY 24 22 91 E6 30.20F WCI 17
MOUNT PLEASANT FAIR 13 6 76 CALM 30.23F
MUSKEGON CLOUDY 21 12 68 E9 30.20F WCI 11
STURGIS CLOUDY 27 22 82 E8 30.17F WCI 18
$$
MIZ016>042-171200-
NORTHERN LOWER MICHIGAN

CITY SKY/WX TMP DP RH WIND PRES REMARKS
ALPENA FAIR 5 1 83 CALM 30.28S
BEAVER ISLAND CLOUDY 11 8 85 CALM 30.22F
BELLAIRE FAIR 8 4 86 CALM 30.25F
CADILLAC CLOUDY -1 -6 80 CALM 30.16F
CHARLEVOIX CLOUDY 16 9 73 SE7 30.27S WCI 6
GAYLORD FAIR 5 4 95 CALM 30.19F
HOUGHTON LAKE FAIR 4 -1 80 E5 30.22F WCI -5
MANISTEE FAIR 7 4 87 E6 30.22F WCI -3
OSCODA FAIR 0 -4 81 CALM 30.28F
PELLSTON CLOUDY 12 8 84 CALM 30.26F
TRAVERSE CITY FAIR 11 5 77 VRB3 30.23F
LUDINGTON FAIR 11 7 83 E3 30.20F
$$
MIZ007>008-015-171200-
EASTERN UPPER MICHIGAN

CITY SKY/WX TMP DP RH WIND PRES REMARKS
KINROSS FAIR 3 0 87 CALM 30.23F
MACKINAC ISLAN CLOUDY 16 8 72 S7 30.22F WCI 6
NEWBERRY FAIR 1 -2 89 CALM 30.20F
S. S. MARIE FAIR 11 4 73 SW7 30.22F WCI 0
$$
MIZ004>006-011>014-085-171200-
CENTRAL UPPER MICHIGAN

CITY SKY/WX TMP DP RH WIND PRES REMARKS
MANISTIQUE FAIR -3 -10 72 CALM 30.21S
ESCANABA FAIR -6 -10 83 CALM 30.22F
MENOMINEE FAIR 6 3 87 CALM 30.21F
SAWYER-GWINN FAIR -4 -9 79 CALM 30.15F
$$
MIZ001>003-009>011-084-171200-
WESTERN UPPER MICHIGAN

CITY SKY/WX TMP DP RH WIND PRES REMARKS
IRON MOUNTAIN FAIR -9 -14 78 N3 30.14F
HOUGHTON FAIR 11 0 61 SW5 30.13F WCI 3
COPPER HARBOR N/A 15 4 61 VRB6 30.17F WCI 6
IRONWOOD FAIR 0 -2 91 SE3 30.13F
$$

ABBREVIATIONS USED IN REMARKS
TC - TEMPERATURE IN CELSIUS
WCI - WIND CHILL INDEX
HX - HEAT INDEX
VSB - VISIBILITY




000
ASUS63 KAPX 170100
RTPAPX


Eastern Upper/Northern Lower Michigan Temperature and Precip Summary
National Weather Service Gaylord MI
800 PM EST Wed Jan 16 2019

18 hour High/Low Temperature ending 7 pm EST
24 hour Precipitation/Snowfall ending 7 pm EST
Snow Depth Observed at 7 pm EST

.BR APX 0116 ES DH19/TAIRZS/TAIRZI/PPDRZZ/SFDRZZ/SDIRZZ
:..................................................................
: MAX MIN 24 HR SNOW SNOW
:ID LOCATION TEMP TEMP PRECIP FALL DEPTH
:..................................................................
ANJ : Sault Ste Marie : 29 / 5 / 0.04 / 0.8 / 18.0
APN : Alpena : 31 / 12 / 0.04 / 0.3 / 7.0
HTL : Houghton Lake : 30 / 14 / 0.01 / 0.2 / 4.0
PLN : Pellston : 31 / 13 / 0.03 / /
TVC : Traverse City : 34 / 20 / 0.02 / /
GLR : Gaylord : 28 / 12 / 0.04 / /
.END

Cooperative Observations
Temperature/Precipitation/Snowfall values are for 24 hour period
ending 7 pm EST. Snow Depth is observed at 7 pm EST.
...................................................................
OBS MAX MIN SNOW SNOW
ID LOCATION TIME TEMP TEMP PCPN FALL DEPTH
...................................................................
ONAM4: Onaway 4N :DH1800/ 31 / 11 / 0.04 / 0.3 / 5.0

These data are preliminary and have not undergone final quality
control by the National Centers for Environmental Information.
Therefore...these data are subject to revision. Final
and certified climate data can be accessed at www.ncdc.noaa.gov.

&&

The following are supplemental temperature and precipitation data.
This includes data which are received from non-National Weather
Service maintained observing systems...as well as reports from
public weather spotters. Data is only partially quality controlled
and is not suitable for official climatological records.

.BR APX 0116 ES DH19/TAIRZS/TAIRZI
:
:Automated Temperature Data--18 hr High/Low ending 7 pm EST
:..................................................................
: MAX MIN
:ID LOCATION TEMP TEMP
:..................................................................
:
ERY : Newberry : 27 / 11
CIU : Kinross : 29 / 7
MCD : Mackinac Island : 31 / 12
DRM : Drummond Island : 32 / 6
SJX : Beaver Island : 31 / 15
SLH : Cheboygan : 31 / 12
PZQ : Rogers City : 31 / 15
CVX : Charlevoix : 33 / 19
MGN : Harbor Springs : 31 / 15
ACB : Bellaire : 33 / 19
FKS : Frankfort : 33 / 18
MBL : Manistee : 34 / 15
CAD : Cadillac : 30 / 8
Y31 : West Branch : 31 / 15
OSC : Oscoda : 31 / 9
LDM : Ludington : 34 / 17
RQB : Big Rapids : 32 / 17
MOP : Mount Pleasant : 33 / 19
IKW : Midland : 33 / 16
.END

U.S. Forest Service Remote Automated Weather Stations (RAWS)
Data is only partially quality controlled
18 hour High/Low Temperature ending 7 pm EST
Minimum Relative Humidity over past 18 hours
12/24 hour Precipitation ending 7 pm EST
...................................................................
MAX MIN MIN 12 HR 24 HR
ID LOCATION TEMP TEMP RH PRECIP PRECIP
...................................................................
AGRM4: Alger RAWS : M / M / M / M / M
ATAM4: Atlanta RAWS : 30 / 12 / 47 / 0.00 / 0.00
BCYM4: Barton City RAWS : 31 / 7 / 39 / 0.00 / 0.00
GYGM4: Grayling RAWS : 29 / 14 / 50 / 0.00 / 0.00
INDM4: Indian River RAWS : 30 / 14 / 50 / 0.00 / 0.00
MMOM4: Mio RAWS : 29 / 9 / 48 / 0.00 / 0.00
MTNM4: Manton RAWS : M / M / M / M / M
NMIM4: N Manitou Island : 31 / 17 / 60 / 0.00 / 0.00
RACM4: Raco RAWS : 25 / 9 / 52 / 0.00 / 0.00
REXM4: Rexton RAWS : 25 / 10 / 61 / 0.00 / 0.00
RSCM4: Roscommon RAWS : 29 / 12 / M / 0.00 / 0.00
RYDM4: Rudyard RAWS : 27 / 10 / 58 / 0.00 / 0.00
SBDM4: The Bear RAWS : 32 / 17 / 56 / 0.00 / 0.00
SCKM4: Silver Creek RAWS : 30 / 11 / 40 / 0.00 / 0.00
WLLM4: Wellston RAWS : 31 / 12 / 47 / 0.01 / 0.01

The following are preicpitation reports received by the National
Weather Service in Gaylord...valid for the time period ending
around 7 pm EST. All reports have been recorded in inches.

Spotter reports from Eastern Upper and Northern Lower Michigan:

WATER TIME SNOW
LOCATION RAIN SNOW EQUIV PERIOD DEPTH
None Received

$$